• In Deutschland
  • Länderverzeichnis
  • Für 7 Tage
  • Wassertemperatur
  • Satellitenkarten
  • Wetterkarte
  • Widgets
  • user-avatar
    Anmelden

    Stündliche Wetter Sankt Ingbert

    Heute, 12 Dezember, Dienstag

    Zeit Temperatur Niederschläge Wind Luftdruck Luftfeuchtigkeit
    00:00 0°C° 0 mm 9 m/S 721 mmHg 82%
    01:00 0°C° 0,1 mm 9 m/S 723 mmHg 82%
    02:00 0°C° 0,1 mm 8 m/S 724 mmHg 82%
    03:00 0°C° 0,1 mm 7 m/S 726 mmHg 82%
    04:00 -1°C° 0 mm 7 m/S 728 mmHg 83%
    05:00 -1°C° 0 mm 6 m/S 729 mmHg 84%
    06:00 -1°C° 0 mm 6 m/S 731 mmHg 85%
    07:00 -1°C° 0 mm 5 m/S 732 mmHg 86%
    08:00 -1°C° 0 mm 5 m/S 733 mmHg 87%
    09:00 -1°C° 0 mm 5 m/S 735 mmHg 88%
    10:00 0°C° 0 mm 5 m/S 735 mmHg 85%
    11:00 0°C° 0 mm 5 m/S 736 mmHg 83%
    12:00 +1°C° 0 mm 6 m/S 737 mmHg 81%
    13:00 +1°C° 0 mm 5 m/S 737 mmHg 81%
    14:00 0°C° 0 mm 4 m/S 738 mmHg 80%
    15:00 0°C° 0 mm 4 m/S 739 mmHg 80%
    16:00 0°C° 0 mm 4 m/S 739 mmHg 83%
    17:00 0°C° 0 mm 3 m/S 740 mmHg 86%
    18:00 -1°C° 0 mm 3 m/S 740 mmHg 90%
    19:00 -1°C° 0 mm 3 m/S 741 mmHg 91%
    20:00 -1°C° 0 mm 3 m/S 741 mmHg 92%
    21:00 -1°C° 0 mm 3 m/S 742 mmHg 93%
    22:00 -1°C° 0 mm 3 m/S 742 mmHg 93%
    23:00 -1°C° 0 mm 3 m/S 742 mmHg 93%

    Morgen, 13 Dezember, Mittwoch

    Zeit Temperatur Niederschläge Wind Luftdruck Luftfeuchtigkeit
    00:00 -1°C° 0 mm 3 m/S 742 mmHg 94%
    01:00 -1°C° 0 mm 3 m/S 742 mmHg 93%
    02:00 -2°C° 0 mm 4 m/S 741 mmHg 93%
    03:00 -2°C° 0 mm 4 m/S 741 mmHg 92%
    04:00 -2°C° 0 mm 4 m/S 741 mmHg 90%
    05:00 -2°C° 0 mm 5 m/S 740 mmHg 88%
    06:00 -1°C° 0 mm 5 m/S 740 mmHg 86%
    07:00 -2°C° 0 mm 6 m/S 739 mmHg 84%
    08:00 -1°C° 0 mm 6 m/S 739 mmHg 81%
    09:00 -1°C° 0 mm 7 m/S 738 mmHg 78%
    10:00 0°C° 0,5 mm 7 m/S 737 mmHg 78%
    11:00 0°C° 0,5 mm 7 m/S 736 mmHg 78%
    12:00 +1°C° 0,5 mm 8 m/S 735 mmHg 77%
    13:00 +1°C° 1 mm 8 m/S 735 mmHg 80%
    14:00 +1°C° 1 mm 8 m/S 734 mmHg 83%
    15:00 +1°C° 1 mm 8 m/S 733 mmHg 85%
    16:00 +1°C° 0,4 mm 8 m/S 732 mmHg 86%
    17:00 +1°C° 0,4 mm 8 m/S 732 mmHg 87%
    18:00 +2°C° 0,4 mm 8 m/S 731 mmHg 88%
    19:00 +2°C° 0,5 mm 8 m/S 730 mmHg 88%
    20:00 +2°C° 0,5 mm 8 m/S 730 mmHg 89%
    21:00 +2°C° 0,5 mm 8 m/S 729 mmHg 89%
    22:00 +4°C° 0,5 mm 8 m/S 729 mmHg 89%
    23:00 +4°C° 0,5 mm 8 m/S 729 mmHg 89%

    übermorgen, 14 Dezember, Donnerstag

    Zeit Temperatur Niederschläge Wind Luftdruck Luftfeuchtigkeit
    00:00 +5°C° 0,5 mm 8 m/S 729 mmHg 89%
    01:00 +4°C° 0,1 mm 8 m/S 729 mmHg 86%
    02:00 +2°C° 0,1 mm 8 m/S 730 mmHg 84%
    03:00 +1°C° 0,1 mm 8 m/S 730 mmHg 82%
    04:00 +2°C° 0,4 mm 7 m/S 731 mmHg 82%
    05:00 +2°C° 0,4 mm 7 m/S 731 mmHg 83%
    06:00 +2°C° 0,4 mm 6 m/S 732 mmHg 84%
    07:00 +2°C° 0,1 mm 6 m/S 732 mmHg 85%
    08:00 +2°C° 0,1 mm 6 m/S 732 mmHg 86%
    09:00 +2°C° 0,1 mm 6 m/S 732 mmHg 87%
    10:00 +2°C° 1 mm 6 m/S 731 mmHg 86%
    11:00 +3°C° 1 mm 7 m/S 730 mmHg 85%
    12:00 +3°C° 1 mm 7 m/S 729 mmHg 84%
    13:00 +3°C° 2,2 mm 7 m/S 728 mmHg 86%
    14:00 +3°C° 2,2 mm 6 m/S 726 mmHg 87%
    15:00 +3°C° 2,2 mm 6 m/S 725 mmHg 88%
    16:00 +3°C° 1,6 mm 6 m/S 724 mmHg 88%
    17:00 +3°C° 1,6 mm 7 m/S 724 mmHg 87%
    18:00 +3°C° 1,6 mm 7 m/S 723 mmHg 87%
    19:00 +2°C° 0,4 mm 7 m/S 724 mmHg 86%
    20:00 +2°C° 0,4 mm 6 m/S 725 mmHg 85%
    21:00 +1°C° 0,4 mm 6 m/S 726 mmHg 83%
    22:00 +1°C° 0,1 mm 6 m/S 726 mmHg 83%
    23:00 -1°C° 0,1 mm 6 m/S 727 mmHg 83%

    15 Dezember, Freitag

    Zeit Temperatur Niederschläge Wind Luftdruck Luftfeuchtigkeit
    00:00 0°C° 0,1 mm 5 m/S 728 mmHg 83%
    01:00 -1°C° 0 mm 5 m/S 728 mmHg 85%
    02:00 -1°C° 0 mm 5 m/S 728 mmHg 86%
    03:00 -1°C° 0 mm 5 m/S 728 mmHg 88%
    04:00 -1°C° 0 mm 5 m/S 728 mmHg 89%
    05:00 -1°C° 0 mm 5 m/S 727 mmHg 91%
    06:00 -1°C° 0 mm 4 m/S 727 mmHg 92%
    07:00 -1°C° 0 mm 5 m/S 727 mmHg 91%
    08:00 0°C° 0 mm 5 m/S 727 mmHg 89%
    09:00 0°C° 0 mm 5 m/S 727 mmHg 88%
    10:00 +1°C° 0,1 mm 5 m/S 727 mmHg 85%
    11:00 +1°C° 0,1 mm 6 m/S 726 mmHg 83%
    12:00 +2°C° 0,1 mm 6 m/S 726 mmHg 80%
    13:00 +2°C° 0,5 mm 5 m/S 726 mmHg 83%
    14:00 +1°C° 0,5 mm 4 m/S 726 mmHg 86%
    15:00 +1°C° 0,5 mm 4 m/S 726 mmHg 88%
    16:00 +2°C° 0,2 mm 3 m/S 726 mmHg 90%
    17:00 +1°C° 0,2 mm 3 m/S 727 mmHg 92%
    18:00 +2°C° 0,2 mm 2 m/S 727 mmHg 94%
    19:00 +1°C° 0 mm 2 m/S 727 mmHg 94%
    20:00 +1°C° 0 mm 2 m/S 728 mmHg 94%
    21:00 +1°C° 0 mm 2 m/S 728 mmHg 94%
    22:00 +1°C° 0,1 mm 2 m/S 729 mmHg 95%
    23:00 +1°C° 0,1 mm 2 m/S 729 mmHg 95%

    16 Dezember, Samstag

    Zeit Temperatur Niederschläge Wind Luftdruck Luftfeuchtigkeit
    00:00 +1°C° 0,1 mm 2 m/S 730 mmHg 95%
    01:00 -1°C° 0,1 mm 2 m/S 730 mmHg 95%
    02:00 -1°C° 0,1 mm 2 m/S 731 mmHg 95%
    03:00 -1°C° 0,1 mm 2 m/S 731 mmHg 95%
    04:00 -1°C° 0 mm 2 m/S 732 mmHg 94%
    05:00 -1°C° 0 mm 3 m/S 732 mmHg 93%
    06:00 -1°C° 0 mm 3 m/S 733 mmHg 92%
    07:00 -1°C° 0 mm 3 m/S 734 mmHg 92%
    08:00 0°C° 0 mm 3 m/S 735 mmHg 91%
    09:00 0°C° 0 mm 3 m/S 735 mmHg 91%
    10:00 0°C° 0,1 mm 3 m/S 736 mmHg 91%
    11:00 0°C° 0,1 mm 4 m/S 736 mmHg 90%
    12:00 0°C° 0,1 mm 4 m/S 736 mmHg 90%
    13:00 0°C° 0,4 mm 4 m/S 737 mmHg 90%
    14:00 0°C° 0,4 mm 4 m/S 737 mmHg 91%
    15:00 0°C° 0,4 mm 4 m/S 737 mmHg 91%
    16:00 0°C° 0,2 mm 4 m/S 737 mmHg 91%
    17:00 0°C° 0,2 mm 4 m/S 738 mmHg 90%
    18:00 -1°C° 0,2 mm 4 m/S 738 mmHg 90%
    19:00 -1°C° 0 mm 4 m/S 739 mmHg 91%
    20:00 -1°C° 0 mm 4 m/S 739 mmHg 91%
    21:00 -1°C° 0 mm 3 m/S 739 mmHg 92%
    22:00 -1°C° 0 mm 3 m/S 739 mmHg 93%
    23:00 -1°C° 0 mm 3 m/S 740 mmHg 93%

    17 Dezember, Sonntag

    Zeit Temperatur Niederschläge Wind Luftdruck Luftfeuchtigkeit
    00:00 -1°C° 0 mm 3 m/S 740 mmHg 93%
    01:00 -2°C° 0,1 mm 4 m/S 740 mmHg 93%
    02:00 -2°C° 0,1 mm 4 m/S 740 mmHg 92%
    03:00 -2°C° 0,1 mm 4 m/S 740 mmHg 91%
    04:00 -4°C° 0,1 mm 5 m/S 740 mmHg 91%
    05:00 -4°C° 0,1 mm 5 m/S 739 mmHg 91%
    06:00 -4°C° 0,1 mm 5 m/S 739 mmHg 91%
    07:00 -2°C° 0,6 mm 5 m/S 740 mmHg 90%
    08:00 -3°C° 0,6 mm 6 m/S 740 mmHg 89%
    09:00 -3°C° 0,6 mm 7 m/S 740 mmHg 89%
    10:00 -2°C° 0,6 mm 7 m/S 740 mmHg 88%
    11:00 -2°C° 0,6 mm 6 m/S 740 mmHg 88%
    12:00 -2°C° 0,6 mm 6 m/S 740 mmHg 88%
    13:00 -2°C° 0,4 mm 6 m/S 740 mmHg 89%
    14:00 -1°C° 0,4 mm 5 m/S 740 mmHg 90%
    15:00 -1°C° 0,4 mm 4 m/S 740 mmHg 91%
    16:00 -1°C° 0,1 mm 4 m/S 740 mmHg 92%
    17:00 -1°C° 0,1 mm 3 m/S 741 mmHg 93%
    18:00 -1°C° 0,1 mm 2 m/S 741 mmHg 94%
    19:00 -2°C° 0 mm 2 m/S 741 mmHg 94%
    20:00 -3°C° 0 mm 2 m/S 741 mmHg 95%
    21:00 -1°C° 0 mm 1 m/S 742 mmHg 95%
    22:00 -2°C° 0 mm 1 m/S 742 mmHg 95%
    23:00 -2°C° 0 mm 1 m/S 742 mmHg 95%
    Mehr zeigen